2017-071H

Last updated on Thu Jan 25 2018 00:20:05 GMT+0000 (Coordinated Universal Time)

1 43044U 17071H 18023.96694573 .00005060 00000-0 14309-3 0 9995 2 43044 51.6402 23.5491 0005862 97.6105 262.5545 15.38091034 7378
UTC large
Height (km)
Speed (km/s)
/
Latitude / Longitude
Inclination (degrees)
Orbital Period (minutes)
Azimuth
Elevation
Range (km)
Doppler Factor

Next 0 passes for location: London (51.5072 / 0.1276)

Sorry there are no passes over London.